sat.trackr.live / text

‹ back to catalog

STARLINK-32504

NORAD 62024 · 2024-213S

PAYLOAD ACTIVE UNKNOWN

§ Identity

Operator
Country
US
Launch date
2024-11-18
Launch site
AFWTR
Launch vehicle
Mass (kg)
RCS (m²)

Purposes: comms

External: N2YO · Heavens-Above · Gunter

§ Orbital elements

Epoch: 2026-05-24T13:37:40.429056Z

Period
94.11 min
Inclination
53.1579°
Eccentricity
0.0001104
Mean motion
15.30194580 rev/d
Perigee alt
474.5 km
Apogee alt
476.0 km
Semi-major
6,853.4 km
B*
7.6426e-4
RAAN
175.5737°
Arg perigee
84.1502°
Mean anomaly
275.9625°
Rev number
8,477

§ Raw data

STARLINK-325041 62024U 24213S   26144.56782904  .00022340  00000+0  76426-3 0  99922 62024  53.1579 175.5737 0001104  84.1502 275.9625 15.30194580 84775

JSON: /api/v1/satellites/62024 · /tle

For live sub-satellite position, see the globe view (requires WebGL).

§ Visibility from observer

Set your observer location to see the next 7 days of passes ≥ 10°. The values pass through the URL so the page stays shareable.

No JS? Fill the form by hand. The geolocation button needs JavaScript.